GSAT-10 (GAGAN/PRN 128)

Last updated on Sun Dec 14 2025 00:03:29 GMT+0000 (Coordinated Universal Time)

1 38779U 12051B 25347.14885465 -.00000152 00000+0 00000+0 0 9992 2 38779 0.0884 266.2122 0002481 224.6822 87.7821 1.00273084 48233
UTC large
Height (km)
Speed (km/s)
/
Latitude / Longitude
Inclination (degrees)
Orbital Period (minutes)
Azimuth
Elevation
Range (km)
Doppler Factor

Next 0 passes for location: London (51.5072 / 0.1276)

Sorry there are no passes over London.